Home > Weather > Fort-de-France > Past weeks

Flag for Martinique Past Weather in Fort-de-France, Martinique — Yesterday and Last 2 Weeks

Now
81 °F

Mostly cloudy.


Feels Like: 86 °F
Forecast: 78 / 87 °F
Wind: 5 mph from East

Location: Le Lamentin Airport

Current Time: May 30, 2016 at 3:03:13 AM

Latest Report: May 30, 2016 at 2:30 AM


Visibility: N/A

Pressure: 29.95 "Hg

Humidity: 84%

Dew Point: 75 °F

Location of Fort-de-FranceLocation

Past Weather in Fort-de-France — Graph

°F

Fort-de-France Temperature Yesterday

Maximum temperature yesterday: 90 °F (at 11:30 AM)
Minimum temperature yesterday: 79 °F (at 12:00 AM)
Average temperature yesterday: 83 °F

High & Low Weather Summary for the Past Weeks

 TemperatureHumidityPressure
High90 °F (May 23, 12:30 PM)94% (May 16, 2:00 AM)30.09 "Hg (May 16, 2:00 AM)
Low75 °F (May 26, 1:00 AM)52% (May 25, 1:30 PM)29.89 "Hg (May 26, 4:00 PM)
Average82 °F75%30.01 "Hg
* Reported May 15 1:00 AM — May 30 1:30 AM, Fort-de-France, Weather by CustomWeather, © 2016

Note: Actual official high and low records may vary slightly from our data, if they occured in-between our weather recording intervals... More about our weather records

Advertising

Fort-de-France Weather History for the Previous 24 Hours

Scroll right to see more
 ConditionsComfort  
Time TempWeatherWind HumidityBarometerVisibility
1:30 AM
Mon, May 30
81 °FOvercast.7 mph84%29.95 "HgN/A
1:00 AM81 °FPassing clouds.5 mph84%29.95 "HgN/A
12:30 AM81 °FOvercast.6 mph84%29.98 "HgN/A
12:00 AM81 °FOvercast.7 mph84%29.98 "HgN/A
11:30 PM
Sun, May 29
81 °FClear.7 mph79%29.98 "HgN/A
11:00 PM81 °FClear.8 mph79%30.01 "HgN/A
10:30 PM81 °FPassing clouds.8 mph79%29.98 "HgN/A
10:00 PM81 °FClear.10 mph79%30.01 "HgN/A
9:30 PM81 °FClear.7 mph84%30.01 "HgN/A
9:00 PM81 °FOvercast.5 mph84%30.01 "HgN/A
8:30 PM81 °FClear.5 mph84%29.98 "HgN/A
8:00 PM81 °FClear.6 mph84%29.98 "HgN/A
7:30 PM81 °FClear.7 mph84%29.98 "HgN/A
7:00 PM82 °FClear.8 mph79%29.98 "HgN/A
6:30 PM82 °FClear.8 mph74%29.98 "HgN/A
6:00 PM84 °FClear.7 mph70%29.98 "HgN/A
5:30 PM84 °FClear.13 mph66%29.95 "HgN/A
5:00 PM84 °FPartly sunny.13 mph66%29.95 "HgN/A
4:30 PM86 °FPartly sunny.13 mph66%29.95 "HgN/A
4:00 PM86 °FScattered clouds.12 mph62%29.95 "HgN/A
3:30 PM86 °FBroken clouds.12 mph70%29.95 "HgN/A
3:00 PM88 °FScattered clouds.12 mph62%29.98 "HgN/A
2:30 PM88 °FPartly sunny.9 mph62%29.98 "HgN/A
2:00 PM88 °FPassing clouds.15 mph62%29.98 "HgN/A
1:30 PM90 °FPartly sunny.15 mph59%29.98 "HgN/A
1:00 PM88 °FScattered clouds.15 mph59%29.98 "HgN/A
12:30 PM90 °FScattered clouds.16 mph59%29.98 "HgN/A
12:00 PM90 °FScattered clouds.17 mph63%29.98 "HgN/A
11:30 AM90 °FPassing clouds.16 mph63%29.98 "HgN/A
11:00 AM88 °FPartly sunny.15 mph66%29.98 "HgN/A
10:30 AM86 °FPartly sunny.14 mph70%30.01 "HgN/A
10:00 AM86 °FPartly sunny.13 mph66%30.01 "HgN/A
9:30 AM86 °FBroken clouds.15 mph70%30.01 "HgN/A
9:00 AM86 °FPartly sunny.12 mph70%30.01 "HgN/A
8:30 AM84 °FScattered clouds.12 mph74%30.01 "HgN/A
8:00 AM84 °FPartly sunny.10 mph74%30.01 "HgN/A
7:30 AM82 °FPartly sunny.10 mph79%30.01 "HgN/A
7:00 AM81 °FScattered clouds.5 mph84%30.01 "HgN/A
6:30 AM79 °FClear.5 mph89%29.98 "HgN/A
6:00 AM79 °FClear.2 mph89%29.98 "HgN/A
5:30 AM79 °FClear.No wind84%29.98 "HgN/A
5:00 AM79 °FClear.No wind84%29.98 "HgN/A
4:30 AM79 °FClear.3 mph84%29.98 "HgN/A
4:00 AM79 °FClear.3 mph84%29.98 "HgN/A
3:30 AM79 °FClear.6 mph84%29.98 "HgN/A
3:00 AM79 °FClear.6 mph84%29.98 "HgN/A
Weather by CustomWeather, © 2016

See weather overviewHow to use our weather pages